Hourly Data Report for November 28, 2021

DRYDEN REGIONAL
ONTARIO
Current Station Operator: NAVCAN

49°49'39.000" N
92°44'39.000" W
412.70 m
6032125
71527
YHD

Download Data

Hourly Data (November 2021)
Hourly Data Report for November 28, 2021
TIME
LST
Temp Definition
°C
Dew Point Definition
°C
Rel Hum Definition
%
Precip. Amount Definition
mm

Wind Dir Definition
10's deg

Wind Spd Definition
km/h
Visibility Definition
km
Stn Press Definition
kPa
Hmdx Definition


Wind Chill Definition


Weather Definition


00:00 -3.1 -6.2 79 0.0 29 21 16.1 96.24   -9 Snow
01:00 -3.3 -6.4 79 0.0 29 18 16.1 96.28   -9 Snow
02:00 -3.8 -6.6 81 0.0 29 18 16.1 96.35   -10 Snow
03:00 -4.2 -6.8 82 0.0 29 21 16.1 96.41   -11 Snow
04:00 -4.0 -7.5 77 0.0 31 13 16.1 96.46   -9 LegendNANA
05:00 -4.1 -7.4 78 0.0 30 13 16.1 96.46   -9 Snow
06:00 -4.4 -7.9 77 0.0 30 9 16.1 96.51   -8 Snow
07:00 -5.1 -7.1 86 0.0 33 11 3.6 96.55   -10 Snow
08:00 -5.5 -7.5 86 0.0 31 9 12.9 96.61   -10 Snow
09:00 -5.3 -7.3 86 0.0 31 9 6.4 96.63   -9 Snow
10:00 -5.2 -7.3 85 0.0 34 8 4.8 96.67   -9 Snow
11:00 -5.3 -8.9 76 0.0 33 8 16.1 96.67   -9 Snow
12:00 -5.2 -8.3 79 0.0 30 8 16.1 96.67   -9 LegendNANA
13:00 -5.1 -8.4 78 0.0 33 9 16.1 96.68   -9 Snow
14:00 -5.2 -8.4 78 0.0 32 9 16.1 96.70   -9 LegendNANA
15:00 -5.1 -7.9 81 0.0 29 9 16.1 96.73   -9 LegendNANA
16:00 -5.2 -8.0 81 0.0 32 5 16.1 96.67   -7 LegendNANA
17:00 -5.3 -7.9 82 0.0 LegendMM 4 16.1 96.66   -7 LegendNANA
18:00 -5.5 -8.1 82 0.0 28 8 16.1 96.68   -9 LegendNANA
19:00 -5.5 -8.1 82 0.0 25 5 16.1 96.64   -8 LegendNANA
20:00 -5.5 -8.4 80 0.0 26 11 16.1 96.62   -10 LegendNANA
21:00 -5.5 -8.6 79 0.0 22 8 16.1 96.56   -9 LegendNANA
22:00 -5.7 -8.6 80 0.0 21 8 16.1 96.53   -9 LegendNANA
23:00 -6.1 -8.9 81 0.0 22 8 16.1 96.48   -10 LegendNANA

Notes on Data Quality.

Legend

  • E = Estimated
  • M = Missing
  • NA = Not Available*
  • [empty] = Indicates an unobserved value
Date modified: